• In Portugal
  • List of Countries
  • For 7 days
  • Water Temperature
  • Satellite Maps
  • Weather Map
  • Weather Widgets
  • user-avatar
    Login

    Hourly Weather Filippovskiy

    Today, 21 September, Friday

    Time Temperature Precipitation Wind Pressure Humidity
    00:00 +16°C° 0 mm 1 mps 744 mmHg 90%
    01:00 +15°C° 0 mm 1 mps 745 mmHg 91%
    02:00 +15°C° 0 mm 1 mps 745 mmHg 91%
    03:00 +15°C° 0 mm 1 mps 745 mmHg 92%
    04:00 +14°C° 0 mm 1 mps 745 mmHg 92%
    05:00 +14°C° 0 mm 1 mps 745 mmHg 92%
    06:00 +16°C° 0 mm 1 mps 745 mmHg 87%
    07:00 +18°C° 0 mm 1 mps 746 mmHg 82%
    08:00 +19°C° 0 mm 1 mps 746 mmHg 76%
    09:00 +21°C° 0 mm 1 mps 746 mmHg 69%
    10:00 +21°C° 0 mm 2 mps 746 mmHg 63%
    11:00 +24°C° 0 mm 2 mps 746 mmHg 56%
    12:00 +25°C° 0 mm 2 mps 746 mmHg 53%
    13:00 +25°C° 0 mm 2 mps 746 mmHg 51%
    14:00 +26°C° 0 mm 1 mps 746 mmHg 48%
    15:00 +25°C° 0 mm 1 mps 746 mmHg 53%
    16:00 +24°C° 0 mm 1 mps 745 mmHg 58%
    17:00 +23°C° 0 mm 1 mps 745 mmHg 63%
    18:00 +22°C° 0 mm 1 mps 745 mmHg 66%
    19:00 +21°C° 0 mm 1 mps 745 mmHg 69%
    20:00 +19°C° 0 mm 2 mps 745 mmHg 72%
    21:00 +18°C° 0 mm 2 mps 745 mmHg 74%
    22:00 +18°C° 0 mm 2 mps 745 mmHg 76%
    23:00 +17°C° 0 mm 2 mps 745 mmHg 78%

    Tomorrow, 22 September, Saturday

    Time Temperature Precipitation Wind Pressure Humidity
    00:00 +17°C° 0 mm 2 mps 745 mmHg 79%
    01:00 +17°C° 0 mm 2 mps 745 mmHg 80%
    02:00 +17°C° 0 mm 2 mps 745 mmHg 80%
    03:00 +16°C° 0 mm 2 mps 745 mmHg 80%
    04:00 +16°C° 0 mm 2 mps 745 mmHg 80%
    05:00 +16°C° 0 mm 3 mps 745 mmHg 80%
    06:00 +17°C° 0 mm 3 mps 744 mmHg 76%
    07:00 +19°C° 0 mm 3 mps 744 mmHg 71%
    08:00 +20°C° 0 mm 4 mps 744 mmHg 66%
    09:00 +21°C° 0 mm 4 mps 744 mmHg 62%
    10:00 +23°C° 0 mm 5 mps 744 mmHg 58%
    11:00 +25°C° 0 mm 5 mps 744 mmHg 53%
    12:00 +26°C° 0 mm 5 mps 743 mmHg 52%
    13:00 +26°C° 0 mm 6 mps 743 mmHg 50%
    14:00 +27°C° 0 mm 6 mps 742 mmHg 49%
    15:00 +26°C° 0 mm 5 mps 742 mmHg 54%
    16:00 +25°C° 0 mm 4 mps 741 mmHg 58%
    17:00 +24°C° 0 mm 3 mps 741 mmHg 63%
    18:00 +22°C° 0 mm 4 mps 741 mmHg 61%
    19:00 +22°C° 0 mm 4 mps 740 mmHg 60%
    20:00 +21°C° 0 mm 5 mps 740 mmHg 59%
    21:00 +21°C° 0 mm 5 mps 740 mmHg 58%
    22:00 +20°C° 0 mm 5 mps 739 mmHg 57%
    23:00 +20°C° 0 mm 5 mps 739 mmHg 56%

    Day after tomorrow, 23 September, Sunday

    Time Temperature Precipitation Wind Pressure Humidity
    00:00 +19°C° 0 mm 5 mps 739 mmHg 59%
    01:00 +18°C° 0 mm 4 mps 739 mmHg 62%
    02:00 +17°C° 0 mm 4 mps 738 mmHg 65%
    03:00 +15°C° 0.3 mm 4 mps 738 mmHg 71%
    04:00 +14°C° 0.3 mm 5 mps 738 mmHg 77%
    05:00 +12°C° 0.3 mm 5 mps 738 mmHg 84%
    06:00 +10°C° 0.8 mm 5 mps 738 mmHg 85%
    07:00 +9°C° 0.8 mm 5 mps 738 mmHg 87%
    08:00 +8°C° 0.8 mm 6 mps 739 mmHg 88%
    09:00 +9°C° 0.5 mm 5 mps 739 mmHg 86%
    10:00 +10°C° 0.5 mm 4 mps 739 mmHg 84%
    11:00 +10°C° 0.5 mm 4 mps 740 mmHg 82%
    12:00 +11°C° 0 mm 4 mps 740 mmHg 81%
    13:00 +11°C° 0 mm 4 mps 740 mmHg 80%
    14:00 +12°C° 0 mm 4 mps 740 mmHg 78%
    15:00 +12°C° 0 mm 4 mps 740 mmHg 78%
    16:00 +12°C° 0 mm 3 mps 740 mmHg 78%
    17:00 +12°C° 0 mm 3 mps 740 mmHg 78%
    18:00 +11°C° 0 mm 3 mps 740 mmHg 81%
    19:00 +10°C° 0 mm 3 mps 740 mmHg 85%
    20:00 +9°C° 0 mm 2 mps 740 mmHg 88%
    21:00 +9°C° 0 mm 3 mps 740 mmHg 89%
    22:00 +8°C° 0 mm 3 mps 740 mmHg 90%
    23:00 +8°C° 0 mm 3 mps 740 mmHg 91%

    24 September, Monday

    Time Temperature Precipitation Wind Pressure Humidity
    00:00 +8°C° 0 mm 3 mps 740 mmHg 91%
    01:00 +7°C° 0 mm 3 mps 740 mmHg 91%
    02:00 +7°C° 0 mm 2 mps 740 mmHg 92%
    03:00 +7°C° 0 mm 2 mps 740 mmHg 92%
    04:00 +6°C° 0 mm 2 mps 740 mmHg 92%
    05:00 +6°C° 0 mm 2 mps 739 mmHg 92%
    06:00 +8°C° 0 mm 3 mps 739 mmHg 86%
    07:00 +9°C° 0 mm 3 mps 739 mmHg 81%
    08:00 +10°C° 0 mm 3 mps 739 mmHg 75%
    09:00 +11°C° 0.1 mm 4 mps 739 mmHg 72%
    10:00 +12°C° 0.1 mm 5 mps 738 mmHg 70%
    11:00 +13°C° 0.1 mm 6 mps 738 mmHg 67%
    12:00 +11°C° 0.9 mm 6 mps 737 mmHg 72%
    13:00 +10°C° 0.9 mm 6 mps 736 mmHg 77%
    14:00 +9°C° 0.9 mm 6 mps 734 mmHg 82%
    15:00 +9°C° 2.6 mm 8 mps 733 mmHg 84%
    16:00 +8°C° 2.6 mm 9 mps 731 mmHg 86%
    17:00 +8°C° 2.6 mm 11 mps 730 mmHg 87%
    18:00 +8°C° 1.2 mm 11 mps 728 mmHg 86%
    19:00 +9°C° 1.2 mm 11 mps 726 mmHg 85%
    20:00 +11°C° 1.2 mm 11 mps 725 mmHg 84%
    21:00 +9°C° 0.1 mm 11 mps 724 mmHg 83%
    22:00 +8°C° 0.1 mm 11 mps 724 mmHg 82%
    23:00 +7°C° 0.1 mm 11 mps 723 mmHg 81%

    25 September, Tuesday

    Time Temperature Precipitation Wind Pressure Humidity
    00:00 +7°C° 0.2 mm 11 mps 723 mmHg 81%
    01:00 +7°C° 0.2 mm 11 mps 723 mmHg 81%
    02:00 +6°C° 0.2 mm 11 mps 723 mmHg 81%
    03:00 +6°C° 0.1 mm 11 mps 723 mmHg 81%
    04:00 +6°C° 0.1 mm 11 mps 723 mmHg 82%
    05:00 +6°C° 0.1 mm 11 mps 723 mmHg 82%
    06:00 +6°C° 0.4 mm 10 mps 724 mmHg 83%
    07:00 +6°C° 0.4 mm 10 mps 724 mmHg 84%
    08:00 +6°C° 0.4 mm 10 mps 724 mmHg 85%
    09:00 +6°C° 1 mm 10 mps 726 mmHg 85%
    10:00 +6°C° 1 mm 10 mps 727 mmHg 85%
    11:00 +5°C° 1 mm 10 mps 728 mmHg 85%
    12:00 +5°C° 0.7 mm 10 mps 729 mmHg 84%
    13:00 +5°C° 0.7 mm 10 mps 731 mmHg 83%
    14:00 +5°C° 0.7 mm 9 mps 732 mmHg 82%
    15:00 +5°C° 0.2 mm 9 mps 733 mmHg 80%
    16:00 +5°C° 0.2 mm 8 mps 734 mmHg 78%
    17:00 +5°C° 0.2 mm 8 mps 735 mmHg 77%
    18:00 +4°C° 0 mm 7 mps 736 mmHg 76%
    19:00 +4°C° 0 mm 7 mps 736 mmHg 76%
    20:00 +4°C° 0 mm 6 mps 737 mmHg 76%
    21:00 +3°C° 0 mm 6 mps 737 mmHg 76%
    22:00 +3°C° 0 mm 6 mps 738 mmHg 76%
    23:00 +2°C° 0 mm 5 mps 738 mmHg 77%

    26 September, Wednesday

    Time Temperature Precipitation Wind Pressure Humidity
    00:00 +2°C° 0 mm 5 mps 739 mmHg 77%
    01:00 +1°C° 0 mm 5 mps 739 mmHg 77%
    02:00 +1°C° 0 mm 5 mps 740 mmHg 77%
    03:00 +1°C° 0 mm 5 mps 740 mmHg 80%
    04:00 0°C° 0 mm 5 mps 740 mmHg 83%
    05:00 0°C° 0 mm 4 mps 740 mmHg 85%
    06:00 +1°C° 0.1 mm 4 mps 741 mmHg 84%
    07:00 +3°C° 0.1 mm 4 mps 741 mmHg 82%
    08:00 +3°C° 0.1 mm 5 mps 742 mmHg 81%
    09:00 +3°C° 0.3 mm 5 mps 742 mmHg 81%
    10:00 +5°C° 0.3 mm 5 mps 742 mmHg 81%
    11:00 +5°C° 0.3 mm 5 mps 742 mmHg 81%
    12:00 +6°C° 0.2 mm 5 mps 743 mmHg 80%
    13:00 +6°C° 0.2 mm 5 mps 743 mmHg 80%
    14:00 +6°C° 0.2 mm 4 mps 743 mmHg 79%
    15:00 +6°C° 0.1 mm 4 mps 744 mmHg 82%
    16:00 +7°C° 0.1 mm 3 mps 744 mmHg 84%
    17:00 +5°C° 0.1 mm 3 mps 744 mmHg 87%
    18:00 +4°C° 0 mm 3 mps 745 mmHg 88%
    19:00 +3°C° 0 mm 3 mps 746 mmHg 89%
    20:00 +4°C° 0 mm 2 mps 746 mmHg 90%
    21:00 +3°C° 0 mm 2 mps 747 mmHg 88%
    22:00 +2°C° 0 mm 2 mps 747 mmHg 86%
    23:00 +2°C° 0 mm 2 mps 747 mmHg 83%
    Show more